Flag for Brazil Weather past 2 weeks in Belém, Para, Brazil

Now
84 °F

Partly sunny.


Feels Like: 92 °F
Forecast: 74 / 87 °F
Wind: 12 mph from Northeast

Location: Belem Aeroporto

Current Time: Sep 30, 2014 at 3:21:03 PM

Latest Report: Sep 30, 2014 at 3:00 PM


Visibility: N/A

Pressure: 29.92 "Hg

Humidity: 74%

Dew point: 75 °F

Location of BelémLocation

Historic Weather in Belém — Graph

°F

Belém temperature yesterday

Maximum temperature yesterday: 86 °F (at 11:00 AM)
Minimum temperature yesterday: 73 °F (at 3:00 AM)
Average temperature yesterday: 79 °F

Past Weeks' High & Low Weather Summary

 TemperatureHumidityPressure
High91 °F (Sep 28, 2:00 PM)100% (Sep 16, 3:00 AM)29.98 "Hg (Sep 16, 3:00 AM)
Low36 °F (Sep 18, 4:00 PM)49% (Sep 28, 2:00 PM)29.80 "Hg (Sep 17, 4:00 PM)
Average79 °F81%29.89 "Hg
* Reported Sep 15 2:00 PM — Sep 30 2:00 PM, Belém, Weather by CustomWeather, © 2014

Note: Actual official high and low records may vary slightly from our data, if they occured in-between our weather recording intervals... More about our weather records

Advertising

Belém weather history for previous 24 hours

 ConditionsComfort  
Time TempWeatherWind HumidityBarometerVisibility
2:00 PM
Sep 30
84 °FPartly sunny.14 mph74%29.89 "HgN/A
1:00 PM86 °FPartly sunny.12 mph70%29.92 "HgN/A
12:00 PM88 °FPartly sunny.12 mph59%29.95 "HgN/A
11:00 AM86 °FBroken clouds.10 mph62%29.98 "HgN/A
10:00 AM84 °FPartly sunny.12 mph66%29.98 "HgN/A
9:00 AM82 °FScattered clouds.12 mph74%29.98 "HgN/A
8:00 AM79 °FSunny.8 mph84%29.95 "Hg10 mi
7:00 AM75 °FSunny.3 mph94%29.92 "Hg10 mi
6:00 AM75 °FSunny.5 mph89%29.92 "Hg10 mi
5:00 AM75 °FClear.3 mph94%29.92 "Hg10 mi
4:00 AM75 °FClear.5 mph94%29.89 "Hg10 mi
3:00 AM75 °FClear.1 mph94%29.89 "Hg10 mi
2:00 AM75 °FClear.3 mph94%29.89 "Hg10 mi
1:00 AM75 °FClear.3 mph94%29.92 "Hg10 mi
12:00 AM77 °FClear.7 mph89%29.92 "Hg10 mi
11:00 PM
Sep 29
77 °FClear.7 mph89%29.95 "Hg10 mi
10:00 PM77 °FClear.8 mph83%29.95 "Hg10 mi
9:00 PM79 °FClear.10 mph79%29.92 "Hg10 mi
8:00 PM81 °FPassing clouds.13 mph74%29.89 "HgN/A
7:00 PM82 °FPassing clouds.10 mph74%29.89 "HgN/A
6:00 PM84 °FBroken clouds.3 mph74%29.86 "HgN/A
5:00 PM82 °FPartly sunny.8 mph84%29.86 "HgN/A
4:00 PM81 °FPartly sunny.6 mph84%29.86 "HgN/A
3:10 PM81 °FHeavy rain. Partly sunny.12 mph74%29.86 "Hg2 mi
3:00 PM84 °FScattered showers. Partly sunny.10 mph74%29.86 "HgN/A
Weather by CustomWeather, © 2014

See weather overviewHow to use our weather pages